Time,TemperatureF,DewpointF,PressureIn,WindDirection,WindDirectionDegrees,WindSpeedMPH,WindSpeedGustMPH,Humidity,HourlyPrecipIn,Conditions,Clouds,dailyrainin,SoftwareType,DateUTC
2013-05-05 00:00:00,59.0,43.3,30.03,NNE,30,0.0,1.0,56,0.00,,,0.00,Wunderground v.1.13,2013-05-05 04:00:00,
2013-05-05 00:10:00,58.6,43.4,30.02,NNE,30,1.0,1.0,57,0.00,,,0.00,Wunderground v.1.13,2013-05-05 04:10:00,
2013-05-05 00:20:00,58.4,43.7,30.03,NNE,30,0.0,0.0,58,0.00,,,0.00,Wunderground v.1.13,2013-05-05 04:20:00,
2013-05-05 00:30:00,58.0,43.7,30.03,NNE,30,0.0,0.0,59,0.00,,,0.00,Wunderground v.1.13,2013-05-05 04:30:00,
2013-05-05 00:40:00,57.7,43.9,30.03,NNE,30,0.0,0.0,60,0.00,,,0.00,Wunderground v.1.13,2013-05-05 04:40:00,
2013-05-05 00:50:00,57.1,43.8,30.03,NNE,33,0.0,0.0,61,0.00,,,0.00,Wunderground v.1.13,2013-05-05 04:50:00,
2013-05-05 01:00:00,56.1,43.3,30.03,NE,44,0.0,1.0,62,0.00,,,0.00,Wunderground v.1.13,2013-05-05 05:00:00,
2013-05-05 01:10:00,56.4,43.5,30.02,NE,40,1.0,1.0,62,0.00,,,0.00,Wunderground v.1.13,2013-05-05 05:10:00,
2013-05-05 01:20:00,56.7,42.5,30.02,NE,49,1.0,1.0,59,0.00,,,0.00,Wunderground v.1.13,2013-05-05 05:20:00,
2013-05-05 01:30:00,57.5,42.4,30.02,NE,53,2.0,2.0,57,0.00,,,0.00,Wunderground v.1.13,2013-05-05 05:30:00,
2013-05-05 01:40:00,57.6,42.0,30.01,NE,42,2.0,2.0,56,0.00,,,0.00,Wunderground v.1.13,2013-05-05 05:40:00,
2013-05-05 01:50:00,57.4,41.4,30.01,NNE,26,2.0,2.0,55,0.00,,,0.00,Wunderground v.1.13,2013-05-05 05:50:00,
2013-05-05 02:00:00,57.2,41.6,30.01,NE,44,2.0,2.0,56,0.00,,,0.00,Wunderground v.1.13,2013-05-05 06:00:00,
2013-05-05 02:10:00,56.7,42.5,30.01,NE,44,0.0,0.0,59,0.00,,,0.00,Wunderground v.1.13,2013-05-05 06:10:00,
2013-05-05 02:20:00,56.0,43.2,30.01,NE,44,0.0,0.0,62,0.00,,,0.00,Wunderground v.1.13,2013-05-05 06:20:00,
2013-05-05 02:30:00,55.5,41.8,30.00,NE,39,1.0,1.0,60,0.00,,,0.00,Wunderground v.1.13,2013-05-05 06:30:00,
2013-05-05 02:40:00,55.7,40.2,30.00,NE,38,1.0,1.0,56,0.00,,,0.00,Wunderground v.1.13,2013-05-05 06:40:00,
2013-05-05 02:50:00,55.4,41.3,30.00,NE,37,1.0,1.0,59,0.00,,,0.00,Wunderground v.1.13,2013-05-05 06:50:00,
2013-05-05 03:00:00,54.8,40.7,29.99,NNE,15,1.0,1.0,59,0.00,,,0.00,Wunderground v.1.13,2013-05-05 07:00:00,
2013-05-05 03:10:00,54.8,40.3,29.99,NNE,15,1.0,1.0,58,0.00,,,0.00,Wunderground v.1.13,2013-05-05 07:10:00,
2013-05-05 03:20:00,54.9,40.8,29.99,NNE,20,0.0,0.0,59,0.00,,,0.00,Wunderground v.1.13,2013-05-05 07:20:00,
2013-05-05 03:30:00,54.4,42.1,29.99,NNE,20,0.0,0.0,63,0.00,,,0.00,Wunderground v.1.13,2013-05-05 07:30:00,
2013-05-05 03:40:00,52.9,43.0,30.00,NNE,20,0.0,0.0,69,0.00,,,0.00,Wunderground v.1.13,2013-05-05 07:40:00,
2013-05-05 03:50:00,51.9,43.2,29.99,NNE,20,0.0,0.0,72,0.00,,,0.00,Wunderground v.1.13,2013-05-05 07:50:00,
2013-05-05 04:00:00,51.7,42.2,29.99,NNE,20,0.0,0.0,70,0.00,,,0.00,Wunderground v.1.13,2013-05-05 08:00:00,
2013-05-05 04:10:00,52.1,43.7,29.98,NNE,20,0.0,0.0,73,0.00,,,0.00,Wunderground v.1.13,2013-05-05 08:10:00,
2013-05-05 04:20:00,51.8,42.7,29.98,NNE,20,0.0,0.0,71,0.00,,,0.00,Wunderground v.1.13,2013-05-05 08:20:00,
2013-05-05 04:30:00,51.4,44.1,29.98,NNE,20,0.0,0.0,76,0.00,,,0.00,Wunderground v.1.13,2013-05-05 08:30:00,
2013-05-05 04:40:00,50.6,44.3,29.98,NNE,20,0.0,0.0,79,0.00,,,0.00,Wunderground v.1.13,2013-05-05 08:40:00,
2013-05-05 04:50:00,49.9,43.3,29.98,NNE,20,0.0,0.0,78,0.00,,,0.00,Wunderground v.1.13,2013-05-05 08:50:00,
2013-05-05 05:00:00,49.3,43.4,29.98,NNE,23,1.0,1.0,80,0.00,,,0.00,Wunderground v.1.13,2013-05-05 09:00:00,
2013-05-05 05:10:00,48.5,43.6,29.98,NNE,23,1.0,1.0,83,0.00,,,0.00,Wunderground v.1.13,2013-05-05 09:10:00,
2013-05-05 05:20:00,47.7,42.8,29.98,NNE,23,0.0,0.0,83,0.00,,,0.00,Wunderground v.1.13,2013-05-05 09:20:00,
2013-05-05 05:30:00,48.1,42.2,29.98,North,5,0.0,1.0,80,0.00,,,0.00,Wunderground v.1.13,2013-05-05 09:30:00,
2013-05-05 05:40:00,48.8,42.9,29.98,NNE,23,0.0,0.0,80,0.00,,,0.00,Wunderground v.1.13,2013-05-05 09:40:00,
2013-05-05 05:50:00,47.7,42.5,29.98,NNE,23,0.0,0.0,82,0.00,,,0.00,Wunderground v.1.13,2013-05-05 09:50:00,
2013-05-05 06:00:00,47.5,42.3,29.98,NNW,343,0.0,0.0,82,0.00,,,0.00,Wunderground v.1.13,2013-05-05 10:00:00,
2013-05-05 06:10:00,48.0,41.5,29.98,NNW,343,1.0,1.0,78,0.00,,,0.00,Wunderground v.1.13,2013-05-05 10:10:00,
2013-05-05 06:20:00,48.5,40.9,29.97,North,355,1.0,1.0,75,0.00,,,0.00,Wunderground v.1.13,2013-05-05 10:20:00,
2013-05-05 06:30:00,49.1,40.8,29.97,North,355,1.0,1.0,73,0.00,,,0.00,Wunderground v.1.13,2013-05-05 10:30:00,
2013-05-05 06:40:00,49.0,41.4,29.97,North,11,0.0,0.0,75,0.00,,,0.00,Wunderground v.1.13,2013-05-05 10:40:00,
2013-05-05 06:50:00,47.7,42.5,29.97,North,11,0.0,0.0,82,0.00,,,0.00,Wunderground v.1.13,2013-05-05 10:50:00,
2013-05-05 07:00:00,46.9,41.4,29.97,NE,34,0.0,1.0,81,0.00,,,0.00,Wunderground v.1.13,2013-05-05 11:00:00,
2013-05-05 07:10:00,47.3,41.8,29.97,ENE,65,0.0,1.0,81,0.00,,,0.00,Wunderground v.1.13,2013-05-05 11:10:00,
2013-05-05 07:20:00,47.2,41.7,29.97,ENE,66,0.0,0.0,81,0.00,,,0.00,Wunderground v.1.13,2013-05-05 11:20:00,
2013-05-05 07:30:00,47.3,40.5,29.98,ENE,66,0.0,0.0,77,0.00,,,0.00,Wunderground v.1.13,2013-05-05 11:30:00,
2013-05-05 07:40:00,48.3,41.1,29.98,NE,54,0.0,0.0,76,0.00,,,0.00,Wunderground v.1.13,2013-05-05 11:40:00,
2013-05-05 07:50:00,48.8,41.6,29.97,NE,48,0.0,1.0,76,0.00,,,0.00,Wunderground v.1.13,2013-05-05 11:50:00,
2013-05-05 08:00:00,50.1,39.6,29.97,NE,51,1.0,1.0,67,0.00,,,0.00,Wunderground v.1.13,2013-05-05 12:00:00,
2013-05-05 08:10:00,50.9,41.5,29.98,NE,51,0.0,1.0,70,0.00,,,0.00,Wunderground v.1.13,2013-05-05 12:10:00,
2013-05-05 08:20:00,51.8,39.2,29.97,NNE,26,1.0,1.0,62,0.00,,,0.00,Wunderground v.1.13,2013-05-05 12:20:00,
2013-05-05 08:30:00,52.9,39.0,29.97,NE,42,0.0,0.0,59,0.00,,,0.00,Wunderground v.1.13,2013-05-05 12:30:00,
2013-05-05 08:40:00,54.2,37.9,29.97,NNE,25,1.0,2.0,54,0.00,,,0.00,Wunderground v.1.13,2013-05-05 12:40:00,
2013-05-05 08:50:00,55.2,36.9,29.97,North,11,2.0,4.0,50,0.00,,,0.00,Wunderground v.1.13,2013-05-05 12:50:00,
2013-05-05 09:00:00,55.9,35.9,29.96,NE,34,1.0,4.0,47,0.00,,,0.00,Wunderground v.1.13,2013-05-05 13:00:00,
2013-05-05 09:10:00,56.9,35.8,29.97,NE,38,1.0,2.0,45,0.00,,,0.00,Wunderground v.1.13,2013-05-05 13:10:00,
2013-05-05 09:20:00,58.0,35.6,29.96,NE,40,1.0,2.0,43,0.00,,,0.00,Wunderground v.1.13,2013-05-05 13:20:00,
2013-05-05 09:30:00,59.2,34.2,29.95,NNE,31,1.0,1.0,39,0.00,,,0.00,Wunderground v.1.13,2013-05-05 13:30:00,
2013-05-05 09:40:00,60.2,35.1,29.95,North,5,1.0,1.0,39,0.00,,,0.00,Wunderground v.1.13,2013-05-05 13:40:00,
2013-05-05 09:50:00,61.0,33.1,29.95,NE,51,1.0,2.0,35,0.00,,,0.00,Wunderground v.1.13,2013-05-05 13:50:00,
2013-05-05 10:00:00,61.9,30.1,29.94,NW,325,2.0,2.0,30,0.00,,,0.00,Wunderground v.1.13,2013-05-05 14:00:00,
2013-05-05 10:10:00,62.9,29.3,29.93,ENE,59,2.0,2.0,28,0.00,,,0.00,Wunderground v.1.13,2013-05-05 14:10:00,
2013-05-05 10:20:00,63.7,30.0,29.93,ENE,74,2.0,2.0,28,0.00,,,0.00,Wunderground v.1.13,2013-05-05 14:20:00,
2013-05-05 10:30:00,64.2,29.5,29.93,NNE,21,3.0,3.0,27,0.00,,,0.00,Wunderground v.1.13,2013-05-05 14:30:00,
2013-05-05 10:40:00,64.7,30.8,29.93,NNW,343,2.0,2.0,28,0.00,,,0.00,Wunderground v.1.13,2013-05-05 14:40:00,
2013-05-05 10:50:00,65.7,29.8,29.93,North,355,2.0,2.0,26,0.00,,,0.00,Wunderground v.1.13,2013-05-05 14:50:00,
2013-05-05 11:00:00,66.7,30.7,29.93,NNE,30,1.0,2.0,26,0.00,,,0.00,Wunderground v.1.13,2013-05-05 15:00:00,
2013-05-05 11:10:00,67.3,31.2,29.93,WSW,253,2.0,3.0,26,0.00,,,0.00,Wunderground v.1.13,2013-05-05 15:10:00,
2013-05-05 11:20:00,68.1,32.8,29.93,North,355,2.0,3.0,27,0.00,,,0.00,Wunderground v.1.13,2013-05-05 15:20:00,
2013-05-05 11:30:00,68.7,29.4,29.92,North,5,1.0,1.0,23,0.00,,,0.00,Wunderground v.1.13,2013-05-05 15:30:00,
2013-05-05 11:40:00,70.1,28.3,29.91,NNE,28,2.0,2.0,21,0.00,,,0.00,Wunderground v.1.13,2013-05-05 15:40:00,
2013-05-05 11:50:00,71.7,25.9,29.92,North,11,2.0,2.0,18,0.00,,,0.00,Wunderground v.1.13,2013-05-05 15:50:00,
2013-05-05 12:00:00,73.0,27.0,29.91,NE,37,2.0,2.0,18,0.00,,,0.00,Wunderground v.1.13,2013-05-05 16:00:00,
2013-05-05 12:10:00,73.4,25.9,29.92,NE,48,2.0,4.0,17,0.00,,,0.00,Wunderground v.1.13,2013-05-05 16:10:00,
2013-05-05 12:20:00,73.6,24.6,29.91,NE,44,2.0,2.0,16,0.00,,,0.00,Wunderground v.1.13,2013-05-05 16:20:00,
2013-05-05 12:30:00,74.2,25.1,29.91,NE,35,2.0,2.0,16,0.00,,,0.00,Wunderground v.1.13,2013-05-05 16:30:00,
2013-05-05 12:40:00,74.4,26.7,29.91,East,84,2.0,2.0,17,0.00,,,0.00,Wunderground v.1.13,2013-05-05 16:40:00,
2013-05-05 12:50:00,75.3,26.0,29.91,ENE,63,2.0,2.0,16,0.00,,,0.00,Wunderground v.1.13,2013-05-05 16:50:00,
2013-05-05 13:00:00,75.5,27.6,29.91,ENE,59,2.0,3.0,17,0.00,,,0.00,Wunderground v.1.13,2013-05-05 17:00:00,
2013-05-05 13:10:00,76.4,28.3,29.90,ENE,57,3.0,5.0,17,0.00,,,0.00,Wunderground v.1.13,2013-05-05 17:10:00,
2013-05-05 13:20:00,76.4,28.3,29.89,ENE,73,2.0,2.0,17,0.00,,,0.00,Wunderground v.1.13,2013-05-05 17:20:00,
2013-05-05 13:30:00,76.9,30.1,29.89,ENE,70,2.0,2.0,18,0.00,,,0.00,Wunderground v.1.13,2013-05-05 17:30:00,
2013-05-05 13:40:00,76.4,25.3,29.90,ENE,63,4.0,6.0,15,0.00,,,0.00,Wunderground v.1.13,2013-05-05 17:40:00,
2013-05-05 13:50:00,75.9,26.5,29.90,NE,44,4.0,5.0,16,0.00,,,0.00,Wunderground v.1.13,2013-05-05 17:50:00,
2013-05-05 14:00:00,76.3,25.2,29.90,NE,46,4.0,5.0,15,0.00,,,0.00,Wunderground v.1.13,2013-05-05 18:00:00,
2013-05-05 14:10:00,76.4,28.3,29.90,NE,49,4.0,5.0,17,0.00,,,0.00,Wunderground v.1.13,2013-05-05 18:10:00,
2013-05-05 14:20:00,76.5,28.4,29.89,ENE,63,4.0,5.0,17,0.00,,,0.00,Wunderground v.1.13,2013-05-05 18:20:00,
2013-05-05 14:30:00,76.1,26.6,29.89,NE,43,3.0,3.0,16,0.00,,,0.00,Wunderground v.1.13,2013-05-05 18:30:00,
2013-05-05 14:40:00,75.5,29.0,29.89,NE,53,5.0,5.0,18,0.00,,,0.00,Wunderground v.1.13,2013-05-05 18:40:00,
2013-05-05 14:50:00,75.9,29.3,29.89,North,5,3.0,4.0,18,0.00,,,0.00,Wunderground v.1.13,2013-05-05 18:50:00,
2013-05-05 15:00:00,75.2,32.6,29.89,NE,35,3.0,3.0,21,0.00,,,0.00,Wunderground v.1.13,2013-05-05 19:00:00,
2013-05-05 15:10:00,74.5,32.0,29.89,NE,52,3.0,3.0,21,0.00,,,0.00,Wunderground v.1.13,2013-05-05 19:10:00,
2013-05-05 15:20:00,74.2,32.9,29.89,NNE,24,3.0,3.0,22,0.00,,,0.00,Wunderground v.1.13,2013-05-05 19:20:00,
2013-05-05 15:30:00,74.3,35.2,29.89,NNE,14,3.0,3.0,24,0.00,,,0.00,Wunderground v.1.13,2013-05-05 19:30:00,
2013-05-05 15:40:00,74.0,36.9,29.89,NNW,338,3.0,3.0,26,0.00,,,0.00,Wunderground v.1.13,2013-05-05 19:40:00,
2013-05-05 15:50:00,73.7,38.6,29.89,East,97,2.0,2.0,28,0.00,,,0.00,Wunderground v.1.13,2013-05-05 19:50:00,
2013-05-05 16:00:00,73.9,39.6,29.89,NE,40,2.0,2.0,29,0.00,,,0.00,Wunderground v.1.13,2013-05-05 20:00:00,
2013-05-05 16:10:00,73.9,40.5,29.89,NNE,22,2.0,2.0,30,0.00,,,0.00,Wunderground v.1.13,2013-05-05 20:10:00,
2013-05-05 16:20:00,74.3,41.7,29.89,East,82,2.0,2.0,31,0.00,,,0.00,Wunderground v.1.13,2013-05-05 20:20:00,
2013-05-05 16:30:00,74.7,42.9,29.88,NE,46,2.0,2.0,32,0.00,,,0.00,Wunderground v.1.13,2013-05-05 20:30:00,
2013-05-05 16:40:00,74.4,42.6,29.88,ENE,61,2.0,2.0,32,0.00,,,0.00,Wunderground v.1.13,2013-05-05 20:40:00,
2013-05-05 16:50:00,74.4,45.0,29.89,NE,51,2.0,4.0,35,0.00,,,0.00,Wunderground v.1.13,2013-05-05 20:50:00,
2013-05-05 17:00:00,74.2,45.5,29.89,NE,55,3.0,3.0,36,0.00,,,0.00,Wunderground v.1.13,2013-05-05 21:00:00,
2013-05-05 17:10:00,73.3,46.2,29.90,East,86,3.0,3.0,38,0.00,,,0.00,Wunderground v.1.13,2013-05-05 21:10:00,
2013-05-05 17:20:00,72.4,46.0,29.90,NE,55,3.0,3.0,39,0.00,,,0.00,Wunderground v.1.13,2013-05-05 21:20:00,
2013-05-05 17:30:00,72.0,47.6,29.89,ENE,76,2.0,2.0,42,0.00,,,0.00,Wunderground v.1.13,2013-05-05 21:30:00,
2013-05-05 17:40:00,71.8,47.5,29.89,ENE,65,2.0,2.0,42,0.00,,,0.00,Wunderground v.1.13,2013-05-05 21:40:00,
2013-05-05 17:50:00,71.4,47.1,29.90,ENE,72,2.0,2.0,42,0.00,,,0.00,Wunderground v.1.13,2013-05-05 21:50:00,
2013-05-05 18:00:00,71.0,47.4,29.90,ENE,64,2.0,2.0,43,0.00,,,0.00,Wunderground v.1.13,2013-05-05 22:00:00,
2013-05-05 18:10:00,70.7,47.7,29.90,ENE,62,2.0,2.0,44,0.00,,,0.00,Wunderground v.1.13,2013-05-05 22:10:00,
2013-05-05 18:20:00,70.3,47.9,29.90,NE,36,2.0,2.0,45,0.00,,,0.00,Wunderground v.1.13,2013-05-05 22:20:00,
2013-05-05 18:30:00,70.0,47.7,29.90,ENE,69,1.0,1.0,45,0.00,,,0.00,Wunderground v.1.13,2013-05-05 22:30:00,
2013-05-05 18:40:00,69.7,48.0,29.90,ENE,78,2.0,2.0,46,0.00,,,0.00,Wunderground v.1.13,2013-05-05 22:40:00,
2013-05-05 18:50:00,69.5,46.6,29.90,ENE,60,2.0,3.0,44,0.00,,,0.00,Wunderground v.1.13,2013-05-05 22:50:00,
2013-05-05 19:00:00,69.1,46.9,29.90,NE,53,1.0,2.0,45,0.00,,,0.00,Wunderground v.1.13,2013-05-05 23:00:00,
2013-05-05 19:10:00,68.7,46.5,29.89,North,5,1.0,2.0,45,0.00,,,0.00,Wunderground v.1.13,2013-05-05 23:10:00,
2013-05-05 19:20:00,68.4,46.2,29.89,NE,49,1.0,1.0,45,0.00,,,0.00,Wunderground v.1.13,2013-05-05 23:20:00,
2013-05-05 19:30:00,68.1,46.5,29.90,NE,46,1.0,2.0,46,0.00,,,0.00,Wunderground v.1.13,2013-05-05 23:30:00,
2013-05-05 19:40:00,67.8,46.3,29.90,NE,51,1.0,1.0,46,0.00,,,0.00,Wunderground v.1.13,2013-05-05 23:40:00,
2013-05-05 19:50:00,67.7,46.7,29.90,NNE,30,1.0,1.0,47,0.00,,,0.00,Wunderground v.1.13,2013-05-05 23:50:00,
2013-05-05 20:00:00,67.4,45.9,29.90,NE,49,1.0,1.0,46,0.00,,,0.00,Wunderground v.1.13,2013-05-06 00:00:00,
2013-05-05 20:10:00,67.1,46.7,29.90,NE,49,1.0,2.0,48,0.00,,,0.00,Wunderground v.1.13,2013-05-06 00:10:00,
2013-05-05 20:20:00,66.9,46.6,29.90,NE,49,1.0,2.0,48,0.00,,,0.00,Wunderground v.1.13,2013-05-06 00:20:00,
2013-05-05 20:30:00,66.6,46.8,29.90,NE,49,1.0,2.0,49,0.00,,,0.00,Wunderground v.1.13,2013-05-06 00:30:00,
2013-05-05 20:40:00,66.5,46.7,29.91,NE,49,0.0,0.0,49,0.00,,,0.00,Wunderground v.1.13,2013-05-06 00:40:00,
2013-05-05 20:50:00,66.4,46.7,29.91,NE,43,1.0,1.0,49,0.00,,,0.00,Wunderground v.1.13,2013-05-06 00:50:00,
2013-05-05 21:00:00,66.2,46.5,29.92,NE,55,1.0,2.0,49,0.00,,,0.00,Wunderground v.1.13,2013-05-06 01:00:00,
2013-05-05 21:10:00,66.2,45.9,29.91,NE,47,2.0,2.0,48,0.00,,,0.00,Wunderground v.1.13,2013-05-06 01:10:00,
2013-05-05 21:20:00,66.2,45.9,29.91,NE,44,2.0,2.0,48,0.00,,,0.00,Wunderground v.1.13,2013-05-06 01:20:00,
2013-05-05 21:30:00,65.9,46.2,29.91,North,360,1.0,1.0,49,0.00,,,0.00,Wunderground v.1.13,2013-05-06 01:30:00,
2013-05-05 21:40:00,65.6,45.9,29.91,NE,44,2.0,2.0,49,0.00,,,0.00,Wunderground v.1.13,2013-05-06 01:40:00,
2013-05-05 21:50:00,65.4,45.7,29.92,NNE,26,3.0,3.0,49,0.00,,,0.00,Wunderground v.1.13,2013-05-06 01:50:00,
2013-05-05 22:00:00,65.0,45.9,29.92,NNE,22,3.0,3.0,50,0.00,,,0.00,Wunderground v.1.13,2013-05-06 02:00:00,
2013-05-05 22:10:00,64.7,46.1,29.92,ENE,69,3.0,4.0,51,0.00,,,0.00,Wunderground v.1.13,2013-05-06 02:10:00,
2013-05-05 22:20:00,64.4,46.4,29.92,NE,51,2.0,2.0,52,0.00,,,0.00,Wunderground v.1.13,2013-05-06 02:20:00,
2013-05-05 22:30:00,64.2,45.7,29.92,East,88,2.0,3.0,51,0.00,,,0.00,Wunderground v.1.13,2013-05-06 02:30:00,
2013-05-05 22:40:00,64.0,46.0,29.91,NE,53,2.0,2.0,52,0.00,,,0.00,Wunderground v.1.13,2013-05-06 02:40:00,
2013-05-05 22:50:00,63.7,45.7,29.91,NNE,24,2.0,3.0,52,0.00,,,0.00,Wunderground v.1.13,2013-05-06 02:50:00,
2013-05-05 23:00:00,63.6,45.6,29.91,East,80,2.0,2.0,52,0.00,,,0.00,Wunderground v.1.13,2013-05-06 03:00:00,
2013-05-05 23:10:00,63.5,46.6,29.91,NE,37,1.0,1.0,54,0.00,,,0.00,Wunderground v.1.13,2013-05-06 03:10:00,
2013-05-05 23:20:00,63.2,46.3,29.91,NE,46,1.0,1.0,54,0.00,,,0.00,Wunderground v.1.13,2013-05-06 03:20:00,
2013-05-05 23:30:00,62.9,47.0,29.91,ENE,57,1.0,1.0,56,0.00,,,0.00,Wunderground v.1.13,2013-05-06 03:30:00,
2013-05-05 23:40:00,62.8,46.4,29.91,North,10,1.0,1.0,55,0.00,,,0.00,Wunderground v.1.13,2013-05-06 03:40:00,
2013-05-05 23:50:00,62.7,47.2,29.90,NE,54,1.0,1.0,57,0.00,,,0.00,Wunderground v.1.13,2013-05-06 03:50:00,